Paris, TX

7:11 PM CDT on September 20, 2017 (GMT -0500)
Cox

Weather History for KPRX - September, 2013

Change the Weather History Date:

Saturday, September 21, 2013

  Actual Average Record
Temperature  
Mean Temperature 70 °F -  
Max Temperature 82 °F 81 °F 100 °F (2005)
Min Temperature 57 °F 60 °F 57 °F (1999)
Cooling Degree Days 4    
Growing Degree Days 20 (Base 50)    
Moisture  
Dew Point 49 °F    
Average Humidity 51    
Maximum Humidity 77    
Minimum Humidity 25    
Precipitation  
Precipitation 0.00 in - - ()
Sea Level Pressure  
Sea Level Pressure 29.93 in    
Wind  
Wind Speed 11 mph (NNE)    
Max Wind Speed 16 mph    
Max Gust Speed 20 mph    
Visibility 10 miles    
Events      
Averages and records for this station are not official NWS values.
T = Trace of Precipitation, MM = Missing Value Source: NWS Daily Summary

Daily Weather History Graph

Daily Weather History Graph

Search for Another Location

Airport or City:

Trip Planner

Search our weather history database for the weather conditions in past years. The results will help you decide how hot, cold, wet, or windy it might be!

Date:

Astronomy

Sep. 21, 2013 Rise Set
Actual Time 7:09 AM CDT 7:19 PM CDT
Civil Twilight 6:44 AM CDT 7:44 PM CDT
Nautical Twilight 6:15 AM CDT 8:13 PM CDT
Astronomical Twilight 5:46 AM CDT 8:42 PM CDT
Moon 8:40 PM CDT 9:20 AM CDT
Length of Visible Light 12h 59m
Length of Day
12h 10m
Waning Gibbous, 94% of the Moon is Illuminated
Sep 21
Waning Gibbous
Sep 26
Last Quarter
Oct 4
New
Oct 11
First Quarter
Oct 18
Full

Hourly Weather History & Observations

Time (CDT) Temp. Dew Point Humidity Pressure Visibility Wind Dir Wind Speed Gust Speed Precip Events Conditions
12:15 AM 69.8 °F 57.2 °F 64% 29.93 in 10.0 mi NNE 13.8 mph - N/A   Overcast
12:35 AM 69.8 °F 57.2 °F 64% 29.93 in 10.0 mi North 13.8 mph - N/A   Mostly Cloudy
12:55 AM 68.0 °F 55.4 °F 64% 29.93 in 10.0 mi North 13.8 mph - N/A   Overcast
1:15 AM 66.2 °F 55.4 °F 68% 29.93 in 10.0 mi North 11.5 mph - N/A   Mostly Cloudy
1:35 AM 66.2 °F 53.6 °F 64% 29.93 in 10.0 mi North 13.8 mph - N/A   Mostly Cloudy
1:55 AM 66.2 °F 53.6 °F 64% 29.93 in 10.0 mi North 16.1 mph - N/A   Overcast
2:15 AM 66.2 °F 53.6 °F 64% 29.93 in 10.0 mi North 13.8 mph - N/A   Mostly Cloudy
2:35 AM 64.4 °F 53.6 °F 68% 29.93 in 10.0 mi North 10.4 mph - N/A   Partly Cloudy
2:55 AM 64.4 °F 53.6 °F 68% 29.93 in 10.0 mi North 10.4 mph - N/A   Clear
3:15 AM 62.6 °F 53.6 °F 72% 29.93 in 10.0 mi North 9.2 mph - N/A   Clear
3:35 AM 62.6 °F 53.6 °F 72% 29.93 in 10.0 mi North 8.1 mph - N/A   Clear
3:55 AM 62.6 °F 51.8 °F 68% 29.93 in 10.0 mi North 6.9 mph - N/A   Clear
4:15 AM 62.6 °F 51.8 °F 68% 29.93 in 10.0 mi North 9.2 mph - N/A   Clear
4:35 AM 60.8 °F 51.8 °F 72% 29.93 in 10.0 mi North 8.1 mph - N/A   Clear
4:55 AM 60.8 °F 51.8 °F 72% 29.93 in 10.0 mi North 6.9 mph - N/A   Clear
5:15 AM 60.8 °F 51.8 °F 72% 29.94 in 10.0 mi North 5.8 mph - N/A   Clear
5:35 AM 60.8 °F 51.8 °F 72% 29.94 in 10.0 mi North 6.9 mph - N/A   Clear
5:55 AM 59.0 °F 51.8 °F 77% 29.94 in 10.0 mi North 6.9 mph - N/A   Clear
6:15 AM 59.0 °F 51.8 °F 77% 29.94 in 10.0 mi North 6.9 mph - N/A   Clear
6:35 AM 59.0 °F 51.8 °F 77% 29.95 in 10.0 mi North 6.9 mph - N/A   Clear
6:55 AM 57.2 °F 50.0 °F 77% 29.96 in 10.0 mi North 6.9 mph - N/A   Clear
7:15 AM 57.2 °F 50.0 °F 77% 29.96 in 10.0 mi North 8.1 mph - N/A   Clear
7:35 AM 57.2 °F 50.0 °F 77% 29.97 in 10.0 mi NNW 4.6 mph - N/A   Clear
7:55 AM 59.0 °F 50.0 °F 72% 29.97 in 10.0 mi North 5.8 mph - N/A   Clear
8:15 AM 60.8 °F 51.8 °F 72% 29.97 in 10.0 mi North 8.1 mph - N/A   Clear
8:35 AM 62.6 °F 50.0 °F 63% 29.97 in 10.0 mi North 8.1 mph - N/A   Clear
8:55 AM 62.6 °F 50.0 °F 63% 29.97 in 10.0 mi North 10.4 mph - N/A   Clear
9:15 AM 64.4 °F 51.8 °F 64% 29.98 in 10.0 mi North 12.7 mph - N/A   Clear
9:35 AM 66.2 °F 51.8 °F 60% 29.99 in 10.0 mi NNE 11.5 mph - N/A   Clear
9:55 AM 68.0 °F 51.8 °F 56% 29.99 in 10.0 mi NNE 13.8 mph - N/A   Clear
10:15 AM 69.8 °F 51.8 °F 53% 29.99 in 10.0 mi NE 15.0 mph - N/A   Clear
10:35 AM 71.6 °F 51.8 °F 50% 29.99 in 10.0 mi NE 12.7 mph - N/A   Clear
10:55 AM 71.6 °F 51.8 °F 50% 29.99 in 10.0 mi NNE 10.4 mph - N/A   Clear
11:15 AM 73.4 °F 51.8 °F 47% 29.99 in 10.0 mi NNE 12.7 mph 16.1 mph N/A   Clear
11:35 AM 73.4 °F 50.0 °F 44% 29.99 in 10.0 mi NE 9.2 mph - N/A   Clear
11:55 AM 75.2 °F 48.2 °F 38% 29.98 in 10.0 mi NE 11.5 mph 18.4 mph N/A   Clear
12:15 PM 75.2 °F 48.2 °F 38% 29.97 in 10.0 mi NNE 16.1 mph - N/A   Clear
12:35 PM 77.0 °F 48.2 °F 36% 29.97 in 10.0 mi North 9.2 mph - N/A   Clear
12:55 PM 77.0 °F 48.2 °F 36% 29.96 in 10.0 mi NNE 12.7 mph 18.4 mph N/A   Clear
1:15 PM 77.0 °F 48.2 °F 36% 29.96 in 10.0 mi NNE 13.8 mph - N/A   Clear
1:35 PM 78.8 °F 48.2 °F 34% 29.95 in 10.0 mi NE 8.1 mph - N/A   Clear
1:55 PM 78.8 °F 46.4 °F 32% 29.94 in 10.0 mi NE 16.1 mph 19.6 mph N/A   Clear
2:15 PM 78.8 °F 48.2 °F 34% 29.93 in 10.0 mi NNE 11.5 mph - N/A   Clear
2:35 PM 80.6 °F 48.2 °F 32% 29.92 in 10.0 mi North 11.5 mph - N/A   Clear
2:55 PM 80.6 °F 46.4 °F 30% 29.91 in 10.0 mi NNE 10.4 mph - N/A   Clear
3:15 PM 82.4 °F 46.4 °F 28% 29.90 in 10.0 mi NNE 12.7 mph 18.4 mph N/A   Clear
3:35 PM 82.4 °F 46.4 °F 28% 29.90 in 10.0 mi ENE 12.7 mph - N/A   Clear
3:55 PM 82.4 °F 46.4 °F 28% 29.89 in 10.0 mi ENE 8.1 mph - N/A   Clear
4:15 PM 82.4 °F 44.6 °F 26% 29.89 in 10.0 mi ENE 4.6 mph - N/A   Clear
4:35 PM 82.4 °F 44.6 °F 26% 29.88 in 10.0 mi NNW 8.1 mph - N/A   Clear
4:55 PM 82.4 °F 44.6 °F 26% 29.88 in 10.0 mi NE 11.5 mph - N/A   Clear
5:15 PM 82.4 °F 42.8 °F 25% 29.88 in 10.0 mi NE 12.7 mph - N/A   Clear
5:35 PM 82.4 °F 44.6 °F 26% 29.88 in 10.0 mi ENE 13.8 mph - N/A   Clear
5:55 PM 82.4 °F 44.6 °F 26% 29.88 in 10.0 mi ENE 10.4 mph - N/A   Clear
6:15 PM 80.6 °F 44.6 °F 28% 29.88 in 10.0 mi ENE 11.5 mph - N/A   Clear
6:35 PM 80.6 °F 44.6 °F 28% 29.88 in 10.0 mi ENE 8.1 mph - N/A   Clear
6:55 PM 78.8 °F 44.6 °F 30% 29.88 in 10.0 mi ENE 9.2 mph - N/A   Clear
7:15 PM 75.2 °F 44.6 °F 34% 29.88 in 10.0 mi ENE 6.9 mph - N/A   Clear
7:35 PM 73.4 °F 44.6 °F 36% 29.89 in 10.0 mi ENE 4.6 mph - N/A   Clear
7:55 PM 73.4 °F 44.6 °F 36% 29.89 in 10.0 mi ENE 4.6 mph - N/A   Clear
8:15 PM 71.6 °F 44.6 °F 38% 29.89 in 10.0 mi NE 5.8 mph - N/A   Clear
8:35 PM 69.8 °F 44.6 °F 40% 29.90 in 10.0 mi NE 6.9 mph - N/A   Clear
8:55 PM 66.2 °F 46.4 °F 49% 29.90 in 7.0 mi NNE 8.1 mph - N/A   Clear
9:15 PM 66.2 °F 46.4 °F 49% 29.91 in 10.0 mi NNE 8.1 mph - N/A   Clear
9:35 PM 66.2 °F 46.4 °F 49% 29.91 in 10.0 mi NE 8.1 mph - N/A   Clear
9:55 PM 66.2 °F 46.4 °F 49% 29.91 in 10.0 mi NE 8.1 mph - N/A   Clear
10:15 PM 64.4 °F 46.4 °F 52% 29.91 in 10.0 mi NE 8.1 mph - N/A   Clear
10:35 PM 64.4 °F 46.4 °F 52% 29.91 in 10.0 mi ENE 5.8 mph - N/A   Clear
10:55 PM 64.4 °F 46.4 °F 52% 29.91 in 10.0 mi ENE 5.8 mph - N/A   Clear
11:15 PM 64.4 °F 46.4 °F 52% 29.91 in 10.0 mi ENE 5.8 mph - N/A   Clear
11:35 PM 64.4 °F 46.4 °F 52% 29.92 in 10.0 mi NE 5.8 mph - N/A   Clear
11:55 PM 64.4 °F 46.4 °F 52% 29.91 in 10.0 mi ENE 6.9 mph - N/A   Clear